Content
SEND FEEDBACK

Daily
Averages
Monthly
Summary
United States of America

CAMP QUEZON, GUAM


Home > North America > United States > Guam
Elevation: 269 feet     Latitude: 13 28N     Longitude: 144 48E

WEATHER
 
SELECT A DAY
Number of Records: 214,775;   Date Range: 1/1/95 - 11/21/14
 
SHARE

PRINT THIS DATA

[ ← Previous Day ]
WEATHER ALMANAC - MAY 21, 2013
[ Next Day → ]
[ °C ]   °F
Weather ElementAverageHighLow
Temperature86.1 °F91.9 °F (12:54 pm)81 °F (3:54 am)
Dewpoint73.2 °F75 °F (7:54 pm)69.1 °F (12:54 pm)
Humidity65.9 %79 % (5:54 am)47 % (12:54 pm)
Barometer29.89 in29.94 in (9:54 pm)29.83 in (3:54 pm)
Wind Speed7.4 mph13.8 mph (3:54 pm)
Wind Gust19.6 mph (9:54 am)
Weather ElementAverage
Visibility10 mi
Wind DirectionENE (76.4 °)

Weather ElementTotal
Precipitation---
Cooling Degree Days21.5 (Base 65)
Growing Degree Days36.5 (Base 50)
Averaged from 22 records on May 21, 2013
WEATHER CONDITIONS BREAKOUT
WIND DIRECTION BREAKOUT
WEATHER BY HOUR - MAY 21, 2013
[ °C ]   °F
Local TimeTemperatureDewpointHumidityBarometerVisibilityWind DirectionWind SpeedGust SpeedPrecipitationEventsConditions
1:54 AM82.9 °F73.9 °F74 %29.88 in10.0 miEast (80°)5.8 mphScattered Clouds
2:54 AM82.0 °F73.9 °F76 %29.87 in10.0 miEast (90°)4.6 mphPartly Cloudy
3:54 AM81.0 °F72.0 °F74 %29.87 in10.0 miCalmClear
4:54 AM82.0 °F73.0 °F74 %29.88 in10.0 miEast (80°)3.5 mphClear
5:54 AM81.0 °F73.9 °F79 %29.89 in10.0 miCalmClear
6:54 AM82.9 °F73.9 °F74 %29.91 in10.0 miEast (80°)4.6 mphPartly Cloudy
7:54 AM86.0 °F73.0 °F65 %29.91 in10.0 miEast (80°)12.7 mphClear
8:54 AM89.1 °F73.0 °F59 %29.91 in10.0 miEast (90°)12.7 mphPartly Cloudy
9:54 AM88.0 °F73.0 °F61 %29.91 in10.0 miEast (100°)12.7 mph19.6 mphPartly Cloudy
10:54 AM90.0 °F72.0 °F55 %29.90 in10.0 miESE (110°)11.5 mphPartly Cloudy
11:54 AM90.0 °F72.0 °F55 %29.88 in10.0 miEast (100°)10.4 mph19.6 mphScattered Clouds
12:54 PM91.9 °F69.1 °F47 %29.86 in10.0 miESE (110°)5.8 mph17.3 mphPartly Cloudy
1:54 PM91.9 °F71.1 °F50 %29.86 in10.0 miEast (100°)10.4 mph18.4 mphPartly Cloudy
3:54 PM90.0 °F73.0 °F57 %29.83 in10.0 miENE (70°)13.8 mphPartly Cloudy
4:54 PM89.1 °F73.0 °F59 %29.84 in10.0 miEast (80°)9.2 mphClear
5:54 PM88.0 °F73.0 °F61 %29.86 in10.0 miEast (90°)8.1 mphClear
6:54 PM86.0 °F73.9 °F67 %29.88 in10.0 miEast (80°)5.8 mphClear
7:54 PM84.9 °F75.0 °F72 %29.90 in10.0 miEast (80°)6.9 mphClear
8:54 PM84.9 °F75.0 °F72 %29.92 in10.0 miNE (50°)4.6 mphClear
9:54 PM84.9 °F75.0 °F72 %29.94 in10.0 miENE (70°)6.9 mphPartly Cloudy
10:54 PM84.0 °F73.9 °F72 %29.94 in10.0 miEast (80°)5.8 mphClear
11:54 PM84.0 °F75.0 °F74 %29.93 in10.0 miENE (60°)6.9 mphClear
Hourly data recorded from PGUM, located miles away from Camp Quezon, Guam







STORIES FROM OUR PARTNERS